Tracking 18673 objects as of 27-June-2017
HD Live streaming from Space Station
objects crossing your sky now

AAUSAT CUBESAT 2

Track AAUSAT CUBESAT 2 now!
10-day predictions
AAUSAT CUBESAT 2 is classified as:


NORAD ID: 32788
Int'l Code: 2008-021F
Perigee: 583.5 km
Apogee: 602.5 km
Inclination: 97.6 °
Period: 96.4 minutes
Semi major axis: 6963 km
RCS: 0.034 m2 (small)
Launch date: April 28, 2008
Source: Denmark (DEN)
Launch site: SIRHARIKOTA (SRI)
Uplink (MHz):
Downlink (MHz): 437.429
Beacon (MHz): 437.429
Mode: 1200bps FFSK MSK
Call sign:
Status: Active


This is a CubeSat satellite. AAUSAT-II is the creation of a student team at Aalborg University in Denmark. It will downlink scientific telemetry at 437.425 MHz using 1200 or 9600-baud packet.
Your satellite tracking list
Your tracking list is empty





NASA's NSSDC Master Catalog

Two Line Element Set (TLE):
1 32788U 08021F   17177.67820458 +.00000170 +00000-0 +21129-4 0  9999
2 32788 097.5580 213.3058 0013651 098.2299 262.0470 14.93883572496999
Source of the keplerian elements: Caltech